Location: Cornospital
(48.0620°N, 3.3837°W)
Time: 19:59:44
(UTC+00:00)

Cosmos 2360 Rocket - Pass Details

Date: 17 June 2021
Orbit: 835 x 843 km, 71.0° (Epoch: 02 August)

Event Time Altitude Azimuth Distance (km) Brightness Sun altitude
Rises 21:25:38 0° 195° (SSW) 3,381 5.0 -9.1°
Reaches altitude 10° 21:28:05 10° 192° (SSW) 2,449 4.2 -9.4°
Maximum altitude 21:33:38 63° 112° (ESE) 931 2.2 -9.9°
Drops below altitude 10° 21:39:12 10° 33° (NNE) 2,460 4.9 -10.5°
Sets 21:41:40 0° 30° (NNE) 3,398 5.7 -10.7°
